Humidity-temperature Sensor

Selected Measurement Type: Air Temperature

 
Air Temperature [°C]     6 entries per hour
Showing data from 4/26/2015 (00:00:00 Z) to 4/25/2015 (00:01:00 Z)
Previous Next [ Day | 3-Days | 7-Days ]
First Last
Prev [ Day | 3-Days | 7-Days ] Next
First Last

Start Time:     :
End Time:     :     
Time (in GMT) :00 :50 :40 :30 :20 :10
Previous Next [ Day | 3-Days | 7-Days ]
First Last
Prev [ Day | 3-Days | 7-Days ] Next
First Last


123 => good data
MM => data is determined as missing
-- => data not received/configured
Back to Top Back to Top
4/26/2015 00:00 to 23:10 27.79 27.82 27.81 27.84 27.92 27.98
4/25/2015 23:00 to 22:10 27.81 27.94 28.04 27.97 27.93 27.92
4/25/2015 22:00 to 21:10 27.89 28.09 28.12 28.11 28.11 28.13
4/25/2015 21:00 to 20:10 28.24 28.12 28.12 28.08 28.13 28.09
4/25/2015 20:00 to 19:10 28.02 28.20 28.30 28.23 28.13 28.20
4/25/2015 19:00 to 18:10 28.24 28.28 28.26 28.17 28.19 28.15
4/25/2015 18:00 to 17:10 27.88 27.68 28.34 28.09 28.12 27.84
4/25/2015 17:00 to 16:10 27.80 27.65 28.09 28.13 28.16 28.00
4/25/2015 16:00 to 15:10 27.88 27.95 28.04 27.79 27.95 27.94
4/25/2015 15:00 to 14:10 28.01 27.96 27.91 28.18 27.71 27.69
4/25/2015 14:00 to 13:10 27.55 27.59 27.53 27.59 27.35 27.32
4/25/2015 13:00 to 12:10 26.81 26.53 27.67 27.65 27.51 27.02
4/25/2015 12:00 to 11:10 26.95 26.94 26.92 26.90 27.66 27.36
4/25/2015 11:00 to 10:10 27.24 27.20 26.97 26.95 27.07 26.94
4/25/2015 10:00 to 9:10 26.95 26.82 26.46 26.92 27.70 27.77
4/25/2015 09:00 to 8:10 27.84 27.65 27.75 27.90 27.66 27.69
4/25/2015 08:00 to 7:10 27.50 27.10 26.99 26.52 27.63 27.51
4/25/2015 07:00 to 6:10 27.57 27.66 27.41 27.66 27.31 27.03
4/25/2015 06:00 to 5:10 26.72 27.50 27.55 27.56 27.49 27.38
4/25/2015 05:00 to 4:10 27.18 27.32 27.15 27.41 27.44 27.38
4/25/2015 04:00 to 3:10 27.32 27.35 27.12 27.00 27.28 27.07
4/25/2015 03:00 to 2:10 27.39 27.22 27.19 26.99 27.29 27.44
4/25/2015 02:00 to 1:10 27.42 27.34 27.37 27.34 27.15 27.24
4/25/2015 01:00 to 0:10 27.37 27.28 27.34 27.41 27.18 27.64